Regional Weather Roundup
Issued by NWS

Home | Current Version | Previous Version | Text Only | Print | Product List | Glossary Off
Versions: 1 2 3 4 5 6 7 8 9 10 11 12 13 14 15 16 17 18 19 20 21 22 23 24 25 26 27 28 29 30 31 32 33 34 35 36 37 38 39 40 41 42 43 44 45 46 47 48 49 50

000
ASUS43 KBIS 190110
RWRND

NORTH DAKOTA REGIONAL WEATHER ROUNDUP
NATIONAL WEATHER SERVICE BISMARCK ND
700 PM CST SAT FEB 18 2017

NOTE: "FAIR" INDICATES FEW OR NO CLOUDS BELOW 12,000 FEET WITH NO
SIGNIFICANT WEATHER AND/OR OBSTRUCTIONS TO VISIBILITY.


NDZ001>003-009>011-017-190200-
NORTHWEST NORTH DAKOTA

CITY           SKY/WX    TMP DP  RH WIND       PRES   REMARKS
WILLISTON      FAIR      37  32  82 E8        29.67F
MINOT          CLOUDY    35  32  88 N7        29.73S
MINOT AFB      CLOUDY    34  31  91 SE5       29.74R
$$

NDZ018>021-031>035-040>046-190200-
SOUTHWEST NORTH DAKOTA

CITY           SKY/WX    TMP DP  RH WIND       PRES   REMARKS
BISMARCK       CLOUDY    37  33  85 E8        29.69S
DICKINSON      FAIR      34  30  85 NE9       29.61R
GARRISON         N/A     36  31  82 CALM      29.70R
HETTINGER ARPT CLEAR     41  32  70 MISG      29.60R
$$

NDZ004>008-012>016-024-026-027-054-190200-
NORTHEAST NORTH DAKOTA

CITY           SKY/WX    TMP DP  RH WIND       PRES   REMARKS
GRAND FORKS    CLOUDY    37  30  75 E3        29.77R
GRND FRKS AFB  PTCLDY    34  31  90 NW3       29.78R
DEVILS LAKE    CLOUDY    34  32  92 W3        29.79R
$$

NDZ022-023-025-028>030-036>039-047>053-190200-
SOUTHEAST NORTH DAKOTA

CITY           SKY/WX    TMP DP  RH WIND       PRES   REMARKS
FARGO          PTCLDY    37  35  92 CALM      29.78R
JAMESTOWN      MOCLDY    36  34  92 NE3       29.75R
$$





USA.gov is the U.S. government's official web portal to all federal, state and local government web resources and services.